Lid_Strength_Index
12 13 16 15 14 14 15 16 16 13 11 13 13 13 11 9 10 11 12 11 10 10 9 9 9 9 9 9 8 8 8 7 6 5 5 5 4 4 4 2 1 1 0 0
13 15 13 12 13 14 15 16 17 14 11 13 13 13 10 9 10 11 12 12 11 10 10 10 10 10 9 9 9 9 8 8 7 6 5 4 4 3 3 3 2 1 1 1
16 13 12 13 15 15 15 17 17 16 14 12 13 14 12 10 10 10 11 11 11 11 11 11 10 10 10 10 10 9 7 7 6 5 5 4 4 3 3 2 2 1 1 1
14 12 13 15 16 14 19 13 14 15 19 21 13 21 14 12 12 11 12 12 11 11 10 10 10 10 9 9 8 8 8 7 6 5 5 5 5 5 4 2 1 1 0 1
15 15 15 16 14 13 16 13 14 14 20 18 16 21 16 13 14 14 13 11 11 11 11 11 11 10 9 8 7 7 7 7 6 5 4 4 5 4 3 3 2 1 1 1
15 12 14 14 13 12 12 14 14 15 19 21 20 21 19 16 16 14 12 12 11 11 11 11 10 10 9 8 7 6 6 6 6 5 3 4 4 4 3 3 2 2 2 1
15 15 14 13 15 13 14 19 23 24 23 22 20 20 18 15 14 13 13 12 12 12 12 12 12 11 9 8 8 7 7 7 5 5 4 3 4 3 3 3 2 2 2 2
22 22 17 13 15 17 16 19 23 29 24 21 20 23 17 13 12 12 12 12 12 13 12 12 12 11 10 9 8 8 8 7 6 5 5 4 3 3 3 2 2 2 2 2
21 20 15 14 13 14 16 19 16 23 22 22 21 17 14 14 16 14 13 13 14 14 12 12 12 11 10 10 9 9 9 8 7 6 6 5 4 4 4 4 2 2 2 2
18 23 17 15 14 13 16 14 22 21 25 27 22 22 20 21 21 18 16 16 15 14 13 12 12 12 11 10 9 9 9 8 8 7 7 6 6 5 4 4 4 3 2 3
17 21 20 17 20 18 17 20 20 20 18 22 25 22 18 21 21 19 18 15 16 15 15 13 12 12 11 11 11 10 10 10 9 8 8 7 7 6 6 5 5 4 4 5
15 17 24 21 13 13 14 18 16 23 23 18 19 20 16 18 19 21 19 16 15 15 14 14 13 12 13 13 12 11 11 10 10 9 8 8 8 8 7 6 6 5 6 5
15 20 26 21 18 16 18 15 14 17 16 22 23 21 18 18 19 20 19 19 16 15 14 14 15 15 13 14 13 12 11 11 10 10 9 9 9 9 8 8 7 7 7 7
13 16 23 24 23 21 20 17 15 17 23 20 19 17 14 17 18 20 20 20 18 15 15 15 16 15 15 14 14 13 12 11 11 10 10 10 10 9 9 8 8 8 8 8
15 24 20 18 17 17 17 18 18 19 17 22 18 21 15 14 14 20 20 21 18 18 17 16 16 17 16 15 15 13 13 12 11 11 11 11 10 10 10 9 9 9 9 10
15 24 23 24 17 17 19 17 17 18 18 19 17 18 14 14 20 20 20 21 20 18 18 18 17 18 17 17 16 15 14 13 12 12 12 11 11 11 11 10 10 10 11 11
19 22 27 26 20 21 23 22 20 19 19 19 22 18 20 20 21 21 21 23 22 20 20 19 19 18 18 18 17 16 16 14 14 13 13 12 12 11 11 11 11 12 12 12
22 23 25 28 25 28 18 14 16 18 16 16 16 18 20 21 20 19 20 21 22 22 23 20 19 19 18 18 18 16 16 16 15 15 14 13 13 12 12 12 12 13 13 14
16 21 26 29 30 21 16 16 17 18 17 13 14 15 17 17 15 16 16 18 19 20 21 21 19 19 19 19 18 17 18 17 16 16 15 14 13 13 13 13 14 14 14 15
17 18 23 28 32 30 17 16 15 15 20 14 13 13 14 16 19 17 14 15 16 17 17 18 18 19 20 20 18 17 19 19 19 17 16 15 14 14 14 14 15 14 14 15
22 21 23 23 29 23 14 14 15 22 18 14 14 14 15 17 16 16 15 17 17 17 18 18 19 20 21 20 19 19 20 21 19 17 16 15 15 14 14 14 14 15 15 15
21 23 24 22 27 25 15 16 16 14 15 14 14 15 14 15 16 16 16 16 17 17 18 18 19 20 21 20 20 20 22 21 19 18 16 16 15 15 14 15 15 15 15 16
22 18 21 19 20 15 15 14 13 14 14 14 14 14 14 15 16 16 17 17 18 18 17 18 19 19 20 21 22 22 22 21 20 18 17 17 16 16 15 16 16 16 16 16
20 17 19 20 16 16 15 14 14 13 13 13 13 14 14 15 17 17 18 18 19 20 20 21 22 21 21 22 21 22 22 21 19 18 17 16 16 16 16 16 16 16 16 16
18 18 19 18 17 16 15 14 14 14 13 15 16 15 15 15 16 16 17 18 19 21 23 23 23 23 23 24 25 25 23 22 20 19 18 15 14 15 15 15 16 16 15 15
18 16 18 17 13 15 13 16 15 15 15 14 15 18 17 15 16 16 18 18 19 20 22 22 23 23 23 24 25 26 25 23 22 20 20 17 16 16 16 17 17 14 15 15